Weather in Chesterfield

United Kingdom     53°13′43″N   1°25′24″W
temp.,
°C
wind,
m/s
gust,
m/s
humid.,
%
clouds,
%
prec.,
mm/h
press.,
hPa
HPBL,
m
23 october, sat
sat2301:00+6sw229327 0.0 102328
04:00+5sw239189 0.0 102357
07:00+5sw349111 0.0 102381
10:00+8ssw4977100 0.0 1023307
13:00+11ssw6966100 0.0 10221034
16:00+11ssw71168100 0.0 10201186
19:00+10ssw71267100 0.0 10201020
22:00+8ssw7147974 0.0 1020727
24 october, sun
sun2401:00+10ssw81565100 0.0 10181281
04:00+10s81574100 0.0 1016931
07:00+9s8167774 0.0 1015763
10:00+10ssw81579100 0.1 1015754
13:00+12ssw81580100 0.1 10141067
16:00+13ssw8128250 0.0 1012924
19:00+12ssw7128730 0.0 1012798
22:00+10ssw6139414 0.0 1013491
25 october, mon
mon2501:00+9sw5149414 0.0 1012491
04:00+8sw5139538 0.0 1012504
07:00+8sw512915 0.0 1012511
10:00+10sw5118223 0.0 1013699
13:00+12wsw6106888 0.1 10131117
16:00+12wsw596345 0.0 10131362
19:00+8wsw3981100 0.0 1015254
22:00+7sw398990 0.0 1016265
26 october, tue
tue2601:00+6sw37925 0.0 1016143
04:00+7sw31091100 0.0 1016281
07:00+8sw41190100 0.0 1016351
10:00+9sw51389100 0.0 1017503
13:00+11sw71589100 0.1 1017546
16:00+13sw6118794 0.0 1016764
19:00+12sw6129457 0.0 1017386
22:00+12sw6139436 0.0 1018450
27 october, wed
wed2701:00+12sw5129490 0.0 1018513
04:00+12sw6139398 0.0 1017630
07:00+10ssw51692100 0.0 1017449
10:00+12ssw61583100 0.0 1017534
13:00+15ssw81477100 0.0 1016684
16:00+14ssw9147696 0.0 1015821
19:00+13ssw81681100 0.0 1015873
22:00+12ssw81783100 0.0 1014702